Regional Weather Roundup
Issued by NWS

Home | Current Version | Previous Version | Text Only | Print | Product List | Glossary On
Versions: 1 2 3 4 5 6 7 8 9 10 11 12 13 14 15 16 17 18 19 20 21 22 23 24 25 26 27 28 29 30 31 32 33 34 35 36 37 38 39 40 41 42 43 44 45 46 47 48 49 50
000
ASUS43 KLMK 291310
RWRKY
KENTUCKY REGIONAL WEATHER ROUNDUP
NATIONAL WEATHER SERVICE LOUISVILLE KY
900 AM EDT TUE JUL 29 2014

NOTE "FAIR" INDICATES FEW OR NO CLOUDS BELOW 12,000 FEET
WITH NO SIGNIFICANT WEATHER AND/OR OBSTRUCTIONS TO VISIBILITY.

KYZ001>023-026-027-061>063-070>075-291400-
WESTERN AND SOUTH CENTRAL KENTUCKY

CITY           SKY/WX    TMP DP  RH WIND       PRES   REMARKS
PADUCAH        SUNNY     65  57  75 N5        30.13R
HENDERSON      SUNNY     63  54  72 W3        30.11S
OWENSBORO      SUNNY     60  52  75 NW6       30.12R
HOPKINSVILLE   SUNNY     63  52  68 N9        30.11R
BOWLING GREEN  SUNNY     62  48  60 N6        30.10R
GLASGOW        SUNNY     58  49  73 N7        30.10R
$$

KYZ024-025-028>034-038-045-046-053-291400-
NORTH CENTRAL KENTUCKY

CITY           SKY/WX    TMP DP  RH WIND       PRES   REMARKS
LOUISVILLE/SDF MOSUNNY   61  51  70 NW8       30.08R
LOUISVILLE/LOU SUNNY     60  49  66 NW8       30.09R
FORT KNOX      SUNNY     59  52  78 NW6       30.08R
$$

KYZ035>037-039>044-047>052-055>060-089>105-291400-
NORTHEAST KENTUCKY

CITY           SKY/WX    TMP DP  RH WIND       PRES   REMARKS
LEXINGTON      SUNNY     57  52  83 NW8       30.07R
COVINGTON      MOSUNNY   56  51  84 N8        30.06R
FRANKFORT      SUNNY     55  51  86 NW7       30.06R
$$

KYZ054-064>069-076>088-106>120-291400-
SOUTHEAST KENTUCKY

CITY           SKY/WX    TMP DP  RH WIND       PRES   REMARKS
JACKSON        MOSUNNY   57  53  86 NW3       30.05R
LONDON         SUNNY     61  52  72 N7        30.06R
SOMERSET       SUNNY     59  50  72 NW6       30.08R
MIDDLESBORO    CLOUDY    60  57  92 CALM      30.06R
MONTICELLO     SUNNY     63  53  69 N5        30.09R
$$




USA.gov is the U.S. government's official web portal to all federal, state and local government web resources and services.